Orbital Elements
Epoch 2010 Oct. 11.0 TT = JDT 2455480.5
T 2010 Oct. 26.64307 TT Rudenko
q 3.2151236 (2000.0) P Q
n 0.09721198 Peri. 220.77582 +0.90889260 +0.06801126
a 4.6844239 Node 130.08022 -0.06663228 +0.99762037
e 0.3136566 Incl. 32.52981 -0.41167267 -0.01131673
P 10.1
From 166 observations 1980 Oct. 5-2020 Sept. 23, mean residual 0".7.
|